#timestamp,LO_Frequency,Hit,StdDev 
1571968815.2,286047004.4,N
1571968835.9,286047003.3,N
1571968855.7,286047003.4,N
1571968875.6,286047005.9,N
1571968895.4,286047001.5,N
1571968915.3,286047001.9,N
1571968935.1,286047000.2,N
1571968936.0,286047000.2,N
1571968955.8,286046997.4,N
1571968975.7,286046995.3,N
1571968995.5,286046997.7,N
1571969015.3,286046996.7,N
1571969035.2,286046995.1,N
1571969055.0,286046993.3,N
1571969055.9,286046993.3,N
1571969075.8,286046994.5,N
1571969095.6,286046994.5,N
1571969115.4,286046994.4,N
1571969135.3,286046995.4,N
1571969155.1,286046995.7,N
1571969175.9,286046997.3,N
1571969195.7,286046996.6,N
1571969215.5,286046998.7,N
1571969235.4,286046999.5,N
1571969255.2,286047000.6,N
1571969275.0,286047002.2,N
1571969275.9,286047002.2,N
1571969295.8,286047000.8,N
1571969315.6,286046996.5,N
1571969335.5,286046998.9,N
1571969355.3,286046998.2,N
1571969375.1,286046998.6,N
1571969395.9,286046999.5,N
1571969415.7,286046998.7,N
1571969435.6,286046996.6,N
1571969455.4,286046999.8,N
1571969475.2,286047000.1,N
1571969495.1,286047002.7,N
1571969496.0,286047002.7,N
1571969515.8,286047002.2,N
1571969535.6,286047000.8,N
1571969555.5,286046997.0,N
1571969575.3,286046996.7,N
1571969595.2,286046999.6,N
1571969615.9,286046999.6,N
1571969635.7,286046999.0,N
1571969655.6,286046999.8,N
1571969675.4,286047000.2,N
1571969695.2,286047001.5,N
1571969715.1,286047001.4,N
1571969716.0,286047001.4,N
1571969735.8,286047001.6,N
1571969755.7,286047003.2,N
1571969775.5,286047003.2,N
1571969795.3,286047003.3,N
1571969815.2,286047005.3,N
1571969835.0,286047004.7,N
1571969835.9,286047004.7,N
1571969855.8,286047005.4,N
1571969875.6,286047004.5,N
1571969895.4,286047006.3,N
1571969915.3,286047010.8,Y
1571969935.1,286047006.5,P
1571969955.8,286047009.0,P
1571969975.7,286047009.0,N
1571969995.5,286047007.9,N
1571970015.4,286047009.0,Y
1571970035.2,286047000.0,P
1571970055.0,286046999.9,N
1571970055.9,286046999.9,N
1571970075.8,286047000.0,N
1571970095.6,286046999.8,N
1571970115.4,286047000.9,N
1571970135.3,286047000.3,N
1571970155.1,286047000.5,N
1571970175.9,286047001.6,N
1571970195.7,286047001.8,N
1571970215.5,286047001.4,N
1571970235.4,286047004.4,N
1571970255.2,286047004.3,N
1571970275.1,286047004.1,N
1571970276.0,286047004.1,N
1571970295.8,286047001.6,N
1571970315.6,286047001.7,N
1571970335.5,286047002.5,N
1571970355.3,286047004.1,N
1571970375.1,286047004.1,N
1571970395.9,286047002.1,N
1571970415.7,286047001.6,N
1571970435.6,286047011.9,Y
1571970455.4,286046998.4,P
1571970475.2,286046998.1,N
1571970495.1,286047002.8,N
1571970496.0,286047002.8,N
1571970515.8,286046998.1,N
1571970535.6,286047000.6,N
1571970555.5,286047001.1,N
1571970575.3,286047000.2,N
1571970595.2,286047001.0,N
1571970615.9,286047000.3,N
1571970635.7,286047000.4,N
1571970655.6,286047002.2,N
1571970675.4,286047000.0,N
1571970695.2,286047000.2,N
1571970715.1,286046999.8,N
1571970716.0,286046999.8,N
1571970735.8,286046998.6,N
1571970755.7,286047000.9,N
1571970775.5,286046999.9,N
1571970795.3,286047000.1,N
1571970815.2,286047002.4,N
1571970835.0,286047002.1,N
1571970835.9,286047002.1,N
1571970855.8,286047002.6,N
1571970875.6,286047000.9,N
1571970895.4,286047000.3,N
1571970915.3,286047001.0,N
1571970935.1,286047000.8,N
1571970955.8,286046998.4,N
1571970975.7,286046999.5,N
1571970995.5,286046998.7,N
1571971015.4,286046996.8,N
1571971035.2,286046995.0,Y
1571971055.0,286046996.1,P
1571971055.9,286046996.1,N
1571971075.8,286046995.7,N
1571971095.6,286046995.1,N
1571971115.5,286046995.5,N
1571971135.3,286046995.4,N
1571971155.1,286046995.3,N
1571971175.9,286046995.6,N
1571971195.7,286046995.8,N
1571971215.5,286046995.1,Y
1571971235.4,286047000.8,P
1571971255.2,286046998.1,N
1571971275.1,286047000.9,N
1571971276.0,286047000.9,N
1571971295.8,286047000.5,N
1571971315.6,286047000.4,N
1571971335.5,286047001.1,N
1571971355.3,286046998.2,N
1571971375.2,286046999.5,N
1571971395.9,286046995.4,N
1571971415.7,286046997.9,N
1571971435.6,286046996.1,N
1571971455.4,286046992.1,Y
1571971475.2,286046994.4,P
1571971495.1,286046996.2,N
1571971496.0,286046996.2,N
1571971515.8,286046993.4,Y
1571971535.7,286047001.2,P
1571971555.5,286046998.5,N
1571971575.3,286047000.0,N
1571971595.2,286047003.9,N
1571971615.0,286047001.7,N
1571971615.9,286047001.7,N
1571971635.8,286047003.9,N
1571971655.6,286047004.1,N
1571971675.4,286047003.6,N
1571971695.3,286047005.0,N
1571971715.1,286047003.9,N
1571971735.8,286047003.4,N
1571971755.7,286047004.2,N
1571971775.5,286047003.1,N
1571971795.4,286047004.0,N
1571971815.2,286047003.8,N
1571971835.0,286047003.5,N
1571971835.9,286047003.5,N
1571971855.8,286047003.8,N
1571971875.6,286047002.2,N
1571971895.5,286047002.6,N
1571971915.3,286047001.5,N
1571971935.1,286047003.7,N
1571971955.9,286047001.4,N
1571971975.7,286047004.2,N
1571971995.5,286047002.9,N
1571972015.4,286047003.3,N
1571972035.2,286047006.0,Y
1571972055.1,286047001.3,P
1571972056.0,286047001.3,N
1571972075.8,286047000.0,N
1571972095.6,286047002.5,N
1571972115.5,286047002.6,N
1571972135.3,286046999.7,N
1571972155.1,286047001.1,N
1571972175.9,286046999.9,N
1571972195.7,286047002.1,N
1571972215.6,286047002.5,N
1571972235.4,286047001.8,N
1571972255.2,286047004.0,Y
1571972275.1,286047002.3,P
1571972276.0,286047002.3,P
1571972295.8,286047002.5,P
1571972315.7,286047001.9,Y
1571972335.5,286047002.3,P
1571972355.3,286047002.4,P
1571972375.2,286047002.2,P
1571972395.0,286047002.2,Y
1571972395.9,286047002.2,P
